STARLINK-30297, 57682

Orbit data source: Space-Track

STARLINK-30297, 57682 is a payload satellite owned by SpaceX/Seattle (US) in LEO that was launched on Tue, 22 Aug 2023 UTC via an FALCON 9 launch vehicle from the Air Force Western Test Range (AFWTR). Payload-class satellites include a variety of spacecraft equipped with specific instruments for various scientific and technological missions. These include communications satellites like Starlink; space stations such as the ISS; scientific satellites like the Hubble; Earth observation satellites from companies like Planet Labs, Umbra, and HawkEye 360; GPS; miniature CubeSats for education and research; and military/defense satellites.

Loading next visibility...
Identifier
57682, 2023-124V
Orbit
LEO
Country
Flag of USUS
Related business
Manufacturer
SpaceX/Seattle
Mission
Operational Commercial Communications
Bus & Motor
STARLINK V2M, Unknown motor
Mass
730 kg wet, ~700 kg dry
Launch date (UTC)
2023-08-22 (3 years ago)
Launch vehicle
FALCON 9
Launch site
Air Force Western Test Range (AFWTR)
Object type
Payload
Rocket body
Debris
Shape & HBR
Box + 2 Pan, 17.7 m
Radar Cross Section
33.884 m², Large (>1 m²)

Expand to show TLE details & history
Last TLE update: 2 days ago

TLE from 2 days ago
0 STARLINK-30297
1 57682U 23124V   26171.15587645 -.00001875  00000-0 -51205-4 0  9998
2 57682  53.1606  91.0739 0001438  91.4915 268.6251 15.30183373159251
Epoch: 2026-06-20T03:44Z
TLE epoch observation values (Epoch: 2026-06-20T03:44:27.725Z)
Latitude
0.00003°
Longitude
126.58385°
Altitude
476.188 km
Speed
7.629 km/s
True Right ascension
06h 04m 17s
True Declination
0° 00' 00"
Sunlit
Object was in daylight at epoch
Visualization orbit readout
Latitude
Unknown
Longitude
Unknown
Altitude
Unknown
Speed
Unknown
Apparent Right ascension
Unknown
Apparent Declination
Unknown
Sunlit
N/A
Visualization observer readout
Local Sidereal Time
21:25:48
Azimuth
Unknown
Elevation
Unknown
Doppler factor
Unknown
Orbital elements
Apogee altitude
476.507 km
Perigee altitude
474.535 km
Semi-major axis
6,853.658 km
Eccentricity
0.00014
Inclination
53.1606°
RAAN
91.0739°
Arg. of periapsis
91.4915°
True anomaly
268.60863°
Mean anomaly
268.6251°
Eccentric anomaly
268.61686°
Mean motion
3.82525 °/min
Orbital period
94.11 mins
BSTAR
-0.000051205
Loading maneuver chart data...
Computing Atmospheric mass density...
Loading historical data...
Loading historical data...
Loading historical data...
Loading historical data...
Loading historical data...
Loading historical data...
Loading historical data...

Documentation

Showing up to 5 results
|